TimeCDT,TemperatureF,Dew PointF,Humidity,Sea Level PressureIn,VisibilityMPH,Wind Direction,Wind SpeedMPH,Gust SpeedMPH,PrecipitationIn,Events,Conditions,WindDirDegrees,DateUTC
12:56 AM,50.0,48.0,93,29.22,-9999.0,ENE,9.2,-,N/A,,Unknown,70,2012-10-18 05:56:00
1:56 AM,46.0,45.0,96,29.22,-9999.0,ENE,8.1,-,N/A,,Unknown,70,2012-10-18 06:56:00
2:56 AM,48.0,46.9,96,29.18,-9999.0,Calm,Calm,-,0.07,,Unknown,0,2012-10-18 07:56:00
3:56 AM,51.1,48.9,92,29.13,-9999.0,East,11.5,-,0.06,,Unknown,80,2012-10-18 08:56:00
4:56 AM,50.0,48.0,93,29.11,-9999.0,East,13.8,-,0.10,,Unknown,80,2012-10-18 09:56:00
5:56 AM,52.0,50.0,93,29.12,-9999.0,ENE,17.3,28.8,0.09,,Unknown,60,2012-10-18 10:56:00
6:56 AM,51.1,48.9,92,29.11,-9999.0,ENE,16.1,27.6,0.16,,Unknown,60,2012-10-18 11:56:00
7:56 AM,51.1,48.9,92,29.10,-9999.0,ENE,17.3,28.8,0.12,,Unknown,60,2012-10-18 12:56:00
8:56 AM,51.1,48.9,92,29.10,-9999.0,ENE,19.6,32.2,0.10,,Unknown,60,2012-10-18 13:56:00
9:56 AM,50.0,48.0,93,29.12,-9999.0,ENE,18.4,26.5,0.12,,Unknown,70,2012-10-18 14:56:00
10:56 AM,51.1,48.9,92,29.13,-9999.0,ENE,15.0,26.5,0.01,,Unknown,60,2012-10-18 15:56:00
11:56 AM,46.0,45.0,96,29.21,-9999.0,ENE,5.8,-,N/A,,Unknown,60,2012-10-18 16:56:00
12:56 PM,46.9,45.0,93,29.23,-9999.0,ENE,4.6,-,N/A,,Unknown,60,2012-10-18 17:56:00
1:56 PM,50.0,46.0,86,29.24,-9999.0,Calm,Calm,-,N/A,,Unknown,0,2012-10-18 18:56:00
2:56 PM,48.0,45.0,89,29.25,-9999.0,Calm,Calm,-,N/A,,Unknown,0,2012-10-18 19:56:00
3:56 PM,46.0,44.1,93,29.27,-9999.0,Calm,Calm,-,N/A,,Unknown,0,2012-10-18 20:56:00
4:56 PM,46.9,46.0,97,29.30,-9999.0,Calm,Calm,-,0.02,,Unknown,0,2012-10-18 21:56:00
5:56 PM,46.9,45.0,93,29.32,-9999.0,Calm,Calm,-,0.03,,Unknown,0,2012-10-18 22:56:00
6:56 PM,46.0,44.1,93,29.35,-9999.0,Calm,Calm,-,0.02,,Unknown,0,2012-10-18 23:56:00
7:56 PM,46.9,45.0,93,29.38,-9999.0,Calm,Calm,-,0.04,,Unknown,0,2012-10-19 00:56:00
8:56 PM,46.9,45.0,93,29.41,-9999.0,ENE,4.6,-,0.02,,Unknown,60,2012-10-19 01:56:00
9:56 PM,48.0,46.0,93,29.42,-9999.0,NNE,4.6,-,0.01,,Unknown,20,2012-10-19 02:56:00
10:56 PM,46.9,44.1,90,29.46,-9999.0,ENE,8.1,-,N/A,,Unknown,70,2012-10-19 03:56:00
11:56 PM,46.9,44.1,90,29.47,-9999.0,East,6.9,-,N/A,,Unknown,80,2012-10-19 04:56:00